RH
12 10 10 9 9 9 9 9 9 8 8 8 7 8 7 6 5 6 27 36 40 40 38 20 57 71 73 68 57 43 63 61 54 42 32 19 14 12 13 17 19 27 35 51 85
12 12 11 10 10 10 10 10 10 8 8 8 10 14 10 10 16 27 44 51 43 41 47 42 50 49 64 58 57 52 62 54 34 29 30 21 17 15 16 16 25 48 74 70 89
13 12 12 11 11 11 11 11 8 8 9 11 16 26 44 35 73 74 55 44 56 64 85 81 53 45 53 57 50 51 60 39 29 25 22 26 26 19 19 22 20 42 98 100 99
14 14 13 12 12 12 12 9 8 9 10 11 29 25 79 89 42 75 54 58 49 70 56 62 62 62 55 58 50 50 43 42 33 23 25 27 25 24 19 22 21 28 48 96 100
16 14 14 13 13 12 11 8 8 9 8 14 18 33 74 73 63 41 53 55 47 51 50 47 60 59 60 50 47 42 36 30 29 27 27 27 28 26 23 23 29 56 73 98 96
18 15 15 15 14 12 9 8 8 8 11 18 26 44 93 68 48 44 48 52 54 51 53 45 44 60 62 46 48 39 34 28 26 24 26 29 28 26 24 26 44 73 89 97 98
22 16 17 16 15 12 8 9 8 9 18 21 28 42 72 59 56 56 59 58 57 59 56 51 49 76 61 60 42 39 46 31 26 25 29 26 36 36 27 33 45 67 90 94 100
22 17 17 17 15 11 10 8 10 12 22 22 35 73 69 56 53 50 49 50 55 59 58 54 55 64 80 76 66 43 66 45 30 29 26 31 50 30 29 36 48 59 79 92 100
20 18 17 16 15 12 11 10 16 20 27 40 57 71 57 48 46 43 48 56 57 56 60 64 56 61 66 90 89 56 56 49 38 26 29 36 40 31 29 33 44 56 77 84 100
20 18 18 15 12 13 13 14 17 34 44 45 61 57 58 44 43 47 51 57 57 54 53 54 63 72 80 94 96 60 48 37 39 27 27 35 40 32 30 30 35 56 72 84 99
22 21 19 14 13 21 32 34 50 45 38 73 59 61 50 43 48 46 55 60 64 60 64 53 88 89 75 70 93 41 38 38 29 25 31 33 40 35 33 30 33 48 78 88 89
22 22 19 14 16 36 65 61 87 84 96 48 55 57 46 44 44 41 54 68 77 75 60 74 96 57 42 53 64 57 52 49 42 36 39 40 40 36 39 39 34 38 84 94 92
22 22 18 13 22 32 56 60 72 98 91 57 41 41 42 40 38 53 61 72 72 79 64 64 59 50 46 47 85 77 64 88 61 52 48 46 54 48 42 39 42 62 80 87 86
22 23 20 14 26 41 50 37 71 99 92 33 29 34 36 36 45 59 83 84 91 91 66 67 62 67 56 49 68 96 71 91 72 64 86 49 90 60 49 57 52 72 92 87 81
21 21 18 19 28 56 37 39 77 93 93 28 30 35 37 34 38 61 71 96 93 79 78 75 88 91 81 81 61 75 76 84 98 71 64 60 82 55 47 67 59 64 80 89 84
19 22 18 17 28 34 27 51 94 98 81 34 33 41 43 37 42 49 67 98 99 89 72 61 47 71 85 94 59 66 88 98 100 94 97 78 76 53 58 56 56 58 76 93 95
17 20 19 23 28 20 39 77 94 84 38 50 52 47 52 50 54 62 83 94 98 96 94 62 57 60 68 67 63 60 79 98 98 98 89 71 71 77 56 72 88 76 85 95 97
18 20 22 31 16 23 58 82 77 57 68 47 53 60 42 50 57 65 81 80 83 96 95 90 86 73 62 71 72 75 69 91 94 92 89 55 77 79 59 73 92 80 85 87 94
18 27 42 24 14 40 65 88 66 72 55 66 66 56 57 57 65 72 84 84 79 99 99 97 88 72 74 68 69 65 93 50 84 78 85 74 62 50 52 67 84 88 82 88 90
19 33 40 24 19 41 80 56 51 47 56 68 90 62 73 77 82 91 86 84 93 88 99 94 96 82 78 73 70 67 51 77 85 94 95 86 67 80 57 64 87 96 90 86 89
31 46 34 23 33 54 92 68 52 50 56 84 76 86 68 82 85 87 86 74 91 86 99 98 98 79 96 96 92 76 89 74 70 80 94 76 96 61 87 86 85 93 85 84 85
50 69 30 32 75 72 76 59 49 51 51 73 86 68 76 75 87 90 80 96 87 73 98 99 98 97 75 58 79 91 82 84 95 88 88 91 89 58 84 93 92 100 88 79 77
60 50 44 29 94 88 50 42 47 52 56 63 76 65 60 70 90 69 62 56 57 76 96 98 95 94 83 74 60 92 58 71 90 93 88 92 81 61 76 94 94 96 80 65 54
66 96 82 66 74 74 83 71 66 51 58 56 63 58 73 68 60 77 67 57 54 66 66 83 91 95 95 94 86 90 80 60 71 88 96 86 72 68 75 89 92 82 61 44 55
69 84 73 94 83 66 79 84 67 74 59 59 67 59 85 98 88 78 77 71 62 67 76 88 95 89 63 63 72 67 87 86 86 64 93 80 80 78 79 89 84 63 56 57 58
78 81 82 72 66 77 82 73 66 70 71 75 82 73 74 94 97 96 93 81 87 84 88 87 92 88 86 64 73 85 76 83 83 60 68 78 78 64 60 59 63 68 55 54 55
59 62 88 84 81 86 74 72 65 62 63 65 78 85 81 88 87 89 93 98 99 96 96 94 98 95 95 69 82 93 100 92 86 81 75 82 69 59 61 71 84 75 64 66 68
Wind_Speed
16 15 16 17 17 18 20 21 23 25 26 27 28 29 28 28 26 24 23 16 18 19 19 16 12 17 16 22 22 19 6 13 16 16 10 24 2 7 4 3 5 5 6 16 29
19 18 17 18 20 21 21 23 25 25 26 28 30 29 28 28 26 25 19 17 23 23 19 21 16 22 25 19 18 16 12 16 9 12 12 15 1 5 2 5 7 14 17 25 35
17 17 18 20 21 22 24 25 25 26 28 30 29 28 25 21 19 3 6 9 13 8 7 12 17 23 28 29 28 25 22 12 17 22 8 8 9 9 6 5 11 21 23 29 38
20 20 21 23 24 25 27 28 26 28 30 30 28 23 16 8 5 3 12 16 16 8 13 15 19 22 17 24 30 21 26 26 26 21 6 2 8 9 5 5 5 24 26 31 34
21 21 22 24 26 28 29 29 28 31 31 29 24 14 12 7 15 18 12 13 15 15 18 19 22 25 21 21 24 22 24 24 27 33 8 6 10 7 8 6 5 32 27 31 31
21 22 24 26 29 30 31 29 30 32 30 22 18 8 8 15 5 9 13 16 15 17 16 17 21 22 22 24 23 28 26 20 26 22 13 9 8 7 9 5 16 22 20 29 30
23 24 26 28 31 32 32 30 32 28 23 17 20 10 13 20 11 15 13 15 14 12 15 16 17 14 13 16 29 29 20 16 17 17 8 12 10 8 10 14 16 16 18 27 28
24 25 28 31 33 33 31 33 27 25 9 22 14 3 8 6 8 11 14 20 16 15 15 12 16 17 12 13 13 13 20 12 12 15 17 16 11 9 18 19 18 19 21 26 25
26 27 29 32 33 32 32 33 21 18 6 17 6 4 10 6 8 19 19 19 18 18 19 17 16 21 15 12 8 14 9 15 16 16 8 11 3 11 24 21 20 22 22 23 23
26 28 30 32 32 29 33 31 25 4 9 5 3 8 5 17 19 24 14 12 18 17 18 20 11 10 9 9 7 10 14 14 17 13 15 11 8 11 25 22 22 26 23 19 22
26 29 31 31 29 26 34 24 21 2 28 8 23 16 20 18 16 23 9 15 14 12 10 17 5 10 14 13 13 12 15 20 18 17 16 15 12 14 6 9 10 25 29 27 24
27 29 31 28 23 24 20 15 12 13 14 18 11 15 17 15 22 21 12 15 9 12 9 6 6 13 13 13 16 17 15 11 3 5 9 10 12 10 9 8 16 13 31 33 25
27 29 31 26 16 20 12 17 18 9 6 11 4 6 14 16 21 14 12 13 10 13 13 12 8 7 16 14 11 15 15 10 7 13 14 10 6 9 8 12 11 11 29 35 35
27 29 28 25 11 20 6 28 19 4 3 6 9 4 20 29 8 7 5 6 3 7 10 9 8 10 9 13 15 9 10 7 3 11 5 7 3 6 11 5 7 15 21 23 26
26 27 23 22 20 15 25 26 11 4 3 14 9 12 29 16 22 6 12 5 7 10 5 4 2 4 4 5 8 4 6 4 0 6 6 3 4 5 9 9 10 11 18 19 25
24 25 17 21 17 19 26 17 5 2 4 11 12 21 21 19 15 14 11 9 6 6 8 10 2 5 2 8 19 15 9 6 2 2 2 6 5 5 10 10 8 13 23 20 24
22 19 14 22 24 26 20 7 3 4 14 12 14 17 20 14 9 12 8 11 6 5 2 3 5 3 5 8 6 5 5 2 1 1 3 2 4 2 5 7 3 12 24 17 21
21 12 14 22 21 20 14 2 6 8 6 13 12 22 9 17 10 10 11 11 6 11 4 2 3 11 11 6 1 3 2 3 2 3 2 0 4 1 9 11 15 21 25 16 19
20 8 8 22 17 14 10 4 3 4 11 12 18 7 7 15 10 9 12 8 10 11 7 5 3 1 7 6 5 2 1 2 2 2 3 4 5 4 7 7 8 15 17 16 15
16 6 6 22 12 11 3 3 5 9 10 7 6 7 11 13 11 11 12 11 15 12 8 4 1 4 3 4 5 4 2 2 2 1 2 2 4 2 6 8 8 6 15 16 13
7 5 8 17 9 8 3 4 4 10 11 4 6 7 9 11 7 6 8 2 14 15 10 6 3 1 2 5 3 3 2 3 0 2 2 1 1 2 2 2 8 9 13 15 12
5 2 10 11 5 3 3 2 6 8 10 4 4 8 5 14 4 5 8 3 11 17 8 4 3 3 4 3 4 3 3 2 3 4 1 3 1 4 3 3 14 14 14 16 14
5 4 7 9 3 2 4 4 6 7 6 5 4 8 9 6 4 7 10 8 18 12 8 6 3 1 1 1 1 1 3 3 5 1 1 2 0 5 6 8 11 17 15 14 12
3 2 4 9 5 2 3 4 6 7 4 8 6 7 10 6 8 5 10 9 19 12 16 9 1 1 3 2 2 3 3 2 1 1 3 2 5 5 6 7 10 13 14 11 10
2 1 1 1 3 3 1 1 6 7 6 7 4 8 6 4 5 5 6 9 14 14 10 4 4 3 2 4 2 1 1 3 3 3 3 1 6 4 4 5 9 11 10 9 7
1 2 1 1 1 1 3 1 5 5 2 5 3 12 8 4 3 9 9 4 3 8 7 7 3 2 2 4 5 3 6 5 4 4 6 7 5 6 6 10 8 7 7 6 4
3 3 3 3 2 2 2 2 3 6 4 8 7 10 8 7 14 16 13 11 8 3 4 5 3 4 1 3 3 4 3 3 2 4 4 1 2 4 4 7 6 3 1 3 4
Wind_Direction
2 3 0 359 355 349 346 343 338 332 328 323 319 316 311 307 304 299 287 269 253 259 251 227 197 228 233 223 218 220 244 236 230 243 264 271 216 150 207 137 118 114 93 165 161
358 356 354 352 350 346 342 338 334 329 323 321 320 318 317 314 316 307 290 253 256 262 264 249 237 216 222 230 223 217 223 243 242 234 250 271 322 179 134 206 101 88 127 158 159
351 351 349 348 345 343 340 337 335 329 325 322 320 320 319 327 318 183 247 279 255 300 296 258 247 235 226 224 223 225 234 226 246 263 294 345 328 293 156 258 184 154 152 156 163
353 352 349 347 344 341 338 336 335 330 323 322 319 322 326 339 298 199 321 295 296 311 299 275 249 254 248 224 223 235 232 245 269 253 255 201 289 289 230 276 303 184 184 164 169
350 347 348 345 342 339 337 336 335 328 323 321 320 322 339 261 257 290 301 306 301 295 284 277 283 232 241 244 224 236 235 238 233 257 244 242 261 263 275 206 59 153 170 167 176
347 347 346 346 342 339 337 336 335 326 323 322 324 317 308 277 284 318 307 302 299 289 282 273 264 273 269 235 242 228 243 238 257 251 210 220 232 206 234 168 140 156 167 167 174
346 347 347 346 342 339 336 337 335 325 331 324 318 294 289 259 285 308 302 305 297 277 277 273 267 265 266 266 246 248 239 225 237 243 224 197 251 188 184 152 154 160 160 171 176
347 347 346 345 341 338 336 338 336 322 325 337 321 283 260 277 288 316 314 300 288 273 259 276 273 253 247 275 290 213 246 227 216 227 223 197 232 226 167 159 163 167 165 172 177
347 346 347 344 340 338 338 339 340 318 320 335 323 267 290 328 313 317 309 298 292 279 264 267 268 249 262 233 242 249 211 230 231 213 177 192 194 254 169 168 167 158 154 167 168
345 346 346 344 341 340 341 349 353 352 316 297 285 292 242 320 322 320 316 307 300 288 271 256 253 224 230 227 231 205 200 206 223 229 202 207 214 262 166 171 169 157 157 171 170
344 346 345 345 343 346 353 5 13 271 332 297 286 288 289 303 321 325 326 315 297 272 266 244 206 226 231 240 253 227 202 214 197 221 185 207 192 240 163 177 187 155 153 166 182
344 344 343 346 347 355 1 30 10 314 312 324 288 271 294 311 311 327 325 336 301 296 257 248 236 233 227 225 242 255 261 264 79 124 162 193 218 210 171 187 199 178 149 154 160
343 342 343 350 349 351 0 351 336 321 290 294 272 320 327 317 306 318 339 316 294 288 279 266 239 302 239 232 214 248 246 271 212 180 218 187 229 214 162 173 136 89 158 156 163
343 341 345 350 354 357 338 333 337 25 295 23 0 30 336 327 340 350 3 355 285 290 292 266 302 244 267 240 192 210 216 265 269 163 179 146 231 239 165 120 132 120 157 157 162
342 340 346 350 347 345 326 329 337 44 19 335 346 349 336 332 338 13 338 307 282 291 320 327 189 200 251 257 227 217 122 110 54 202 107 227 85 234 196 177 175 152 157 168 169
341 341 351 354 360 323 333 338 15 251 335 335 337 336 339 352 351 355 3 336 287 303 279 270 350 160 189 239 195 154 129 89 292 105 135 210 140 233 191 191 169 148 152 170 173
339 341 358 1 340 343 341 8 310 40 353 341 332 331 318 360 343 16 342 358 26 315 179 79 26 33 32 114 97 116 136 86 134 75 190 304 146 223 64 36 51 147 135 162 177
339 333 0 353 339 349 353 285 46 24 352 316 323 309 8 14 344 359 352 6 46 8 311 1 106 360 338 22 1 190 161 106 126 178 141 18 214 178 80 63 81 115 135 153 169
341 346 360 349 347 358 350 33 14 7 340 323 319 356 344 8 343 348 11 24 3 4 353 349 69 22 17 7 345 121 12 93 113 190 101 188 91 78 120 102 84 93 126 141 162
344 19 313 345 350 3 25 83 5 9 345 335 332 343 356 354 349 356 11 37 355 349 332 307 165 49 338 294 14 32 81 60 337 130 187 244 137 139 170 149 126 117 124 142 163
2 333 335 352 21 48 59 8 342 344 8 334 334 307 359 354 316 343 5 359 0 340 336 342 306 22 271 11 10 26 29 37 334 111 96 158 55 348 341 354 147 152 158 151 156
27 301 343 1 53 2 32 338 328 334 357 359 285 316 353 329 306 332 15 6 335 354 350 342 305 49 59 80 90 40 298 78 113 337 256 115 305 73 93 51 125 140 156 161 160
350 328 335 21 54 15 339 11 350 343 342 2 310 329 343 306 328 349 355 356 3 13 360 339 24 304 95 333 171 175 329 103 120 219 348 80 6 96 94 78 112 135 149 157 163
357 323 5 48 78 321 359 2 350 353 317 335 293 333 333 328 339 300 0 347 333 16 351 333 76 60 28 344 264 12 35 354 56 94 344 355 120 82 100 103 106 133 148 155 157
23 60 14 38 76 89 24 290 349 8 340 334 343 356 352 303 310 17 1 324 331 7 354 39 8 10 56 5 360 29 20 18 46 61 102 294 98 68 62 114 125 147 156 163 166
289 208 313 87 347 332 174 263 338 348 274 312 352 326 323 290 7 317 331 347 356 338 350 343 349 342 278 94 357 69 55 64 10 64 73 104 79 100 105 100 112 155 179 190 211
226 172 161 151 180 263 132 254 288 4 282 254 293 308 311 360 321 295 282 282 281 331 321 329 347 0 69 62 338 53 298 351 46 13 350 71 71 122 84 73 72 79 164 209 228